Location: Breungeshain
(50.5000°N, 9.2000°E)
Time: 20:44:52
(UTC+00:00)

ISS - Pass Details

Date: 24 May 2017
Orbit: 401 x 408 km, 51.6° (Epoch: 25 June)

Event Time Altitude Azimuth Distance (km) Brightness Sun altitude
Rises 19:48:24 0° 195° (SSW) 2,328 -0.2 -4.7°
Reaches altitude 10° 19:51:22 10° 166° (SSE) 1,471 -1.5 -5.1°
Maximum altitude 19:52:55 13° 138° (SE) 1,316 -1.9 -5.3°
Drops below altitude 10° 19:54:28 10° 109° (ESE) 1,474 -1.6 -5.5°
Sets 19:57:27 0° 80° (E) 2,338 -0.3 -5.8°
